Location: Sungai Laei
(2.6000°N, 113.7167°E)
Time: 10:51:33
(UTC+00:00)

Cosmos 724 - Pass Details

Date: 22 May 2022
Orbit: 863 x 931 km, 65.6° (Epoch: 06 July)

Event Time Altitude Azimuth Distance (km) Brightness Sun altitude
Exits shadow 21:25:02 - 198° (SSW) 3,459 7.0 -12.3°
Reaches altitude 10° 21:27:23 10° 197° (SSW) 2,575 6.4 -11.8°
Maximum altitude 21:33:22 78° 111° (ESE) 909 4.5 -10.4°
Drops below altitude 10° 21:39:12 10° 25° (NNE) 2,521 7.4 -9.0°
Sets 21:41:40 0° 24° (NNE) 3,449 8.1 -8.5°
